Home > Time Zones > World Clock > Weather > U.S.A. > Hilo > Past weeks

Flag Weather past 2 weeks in Hilo, Hawaii, U.S.A.

Now
72 °F

Light rain. Mostly cloudy.


Feels Like: 65 °F
Forecast: 65 / 71 °F
Wind: 10 mph from Northwest

Location: Hilo International Airport

Current Time: Nov 26, 2014 at 9:15:45 AM

Latest Report: Nov 26, 2014 at 8:53 AM


Visibility: 10 mi

Pressure: 30.09 "Hg

Humidity: 100%

Dew point: 72 °F

Location of HiloLocation

Historic Weather in Hilo — Graph

°F

Hilo temperature yesterday

Maximum temperature yesterday: 76 °F (at 10:53 AM)
Minimum temperature yesterday: 64 °F (at 10:53 PM)
Average temperature yesterday: 70 °F

Past Weeks' High & Low Weather Summary

 TemperatureHumidityPressure
High85 °F (Nov 13, 10:53 AM)100% (Nov 20, 10:24 AM)30.17 "Hg (Nov 20, 10:24 AM)
Low62 °F (Nov 24, 5:53 AM)56% (Nov 17, 2:53 PM)29.80 "Hg (Nov 14, 2:53 PM)
Average73 °F83%30.00 "Hg
* Reported Nov 11 8:53 AM — Nov 26 8:00 AM, Hilo, Weather by CustomWeather, © 2014

Note: Actual official high and low records may vary slightly from our data, if they occured in-between our weather recording intervals... More about our weather records

Advertising

Hilo weather history for previous 24 hours

 ConditionsComfort  
Time TempWeatherWind HumidityBarometerVisibility
8:00 AM
Nov 26
65 °FMostly cloudy.6 mph100%30.07 "Hg10 mi
7:44 AM64 °FMostly cloudy.6 mph100%30.07 "Hg10 mi
6:53 AM64 °FMore clouds than sun.6 mph100%30.05 "Hg10 mi
6:31 AM64 °FMostly cloudy.8 mph100%30.05 "Hg10 mi
6:16 AM64 °FMostly cloudy.6 mphN/A30.04 "Hg10 mi
5:53 AM63 °FMostly cloudy.5 mph100%30.03 "Hg10 mi
5:37 AM63 °FLow clouds.6 mph100%30.03 "Hg10 mi
5:23 AM63 °FMostly cloudy.5 mph100%30.03 "Hg10 mi
5:08 AM63 °FMostly cloudy.5 mph100%30.03 "Hg10 mi
4:53 AM63 °FMostly cloudy.5 mph100%30.02 "Hg10 mi
4:31 AM63 °FMostly cloudy.5 mph100%30.03 "Hg10 mi
3:53 AM63 °FLight rain. Overcast.6 mphN/A30.01 "Hg9 mi
2:53 AM64 °FRain. Fog.8 mph100%30.02 "Hg3 mi
1:53 AM65 °FLight rain. Fog.6 mph100%30.03 "Hg4 mi
12:53 AM65 °FLight rain. Fog.6 mph100%30.05 "Hg4 mi
11:53 PM
Nov 25
64 °FOvercast.6 mphN/A30.06 "Hg10 mi
11:28 PM64 °FLight rain. Mostly cloudy.6 mphN/A30.07 "Hg10 mi
10:53 PM64 °FOvercast.5 mphN/A30.07 "Hg10 mi
10:21 PM66 °FMostly cloudy.7 mphN/A30.08 "Hg10 mi
10:00 PM66 °FLight rain. Fog.5 mph100%30.08 "Hg6 mi
9:35 PM66 °FLight rain. Fog.No wind100%30.08 "Hg3 mi
9:17 PM66 °FRain. Fog.No wind100%30.07 "Hg4 mi
8:53 PM67 °FLight rain. Overcast.8 mph100%30.07 "Hg9 mi
8:42 PM66 °FLight rain. Mostly cloudy.7 mph100%30.07 "Hg10 mi
8:23 PM66 °FLight rain. Low clouds.9 mph100%30.07 "Hg10 mi
8:03 PM66 °FOvercast.9 mph100%30.06 "Hg10 mi
7:53 PM67 °FMostly cloudy.12 mph100%30.05 "Hg10 mi
7:26 PM66 °FLight rain. Mostly cloudy.9 mph100%30.05 "Hg10 mi
6:53 PM68 °FLight rain. Mostly cloudy.13 mph100%30.03 "Hg9 mi
5:53 PMN/ARain.6 mphN/A30.02 "Hg3 mi
5:41 PMN/ALight rain.8 mphN/A30.01 "Hg3 mi
5:01 PM69 °FLight rain. Fog.3 mph100%30.00 "Hg2 mi
4:25 PMN/ALight rain.5 mphN/A29.99 "Hg3 mi
3:53 PM70 °FLight rain. Fog.7 mph100%29.98 "Hg2 mi
2:53 PM71 °FLight rain. Mostly cloudy.8 mph96%29.96 "Hg7 mi
2:15 PM73 °FLight rain. Mostly cloudy.9 mph83%29.97 "Hg7 mi
1:53 PM76 °FMostly cloudy.9 mph74%29.97 "Hg10 mi
12:53 PM75 °FLight rain. Overcast.10 mph79%29.98 "Hg10 mi
11:53 AM75 °FOvercast.10 mph76%30.01 "Hg10 mi
10:53 AM76 °FOvercast.10 mph77%30.03 "Hg10 mi
9:53 AM74 °FMostly cloudy.10 mph76%30.04 "Hg10 mi
Weather by CustomWeather, © 2014

See weather overviewHow to use our weather pages